Location: Concord
(42.4605°N, 71.3489°W)
Time: 16:46:25
(UTC-04:00)

Tiangong - Pass Details

Date: 06 April 2026
Orbit: 376 x 385 km, 41.5° (Epoch: 19 April)

Event Time Altitude Azimuth Distance (km) Brightness Sun altitude
Rises 19:57:48 0° 266° (W) 2,244 3.3 -8.1°
Reaches altitude 10° 19:59:53 10° 265° (W) 1,389 1.9 -8.5°
Maximum altitude 20:03:00 75° 180° (S) 393 -2.2 -9.0°
Enters shadow 20:05:38 14° 95° (E) 1,186 -0.3 -9.5°
